Weather History for KGUY - December, 2013

Change the Weather History Date:

Sunday, December 22, 2013

  Actual Average Record
Temperature  
Mean Temperature 27 °F 34 °F  
Max Temperature 36 °F 47 °F 78 °F (2005)
Min Temperature 17 °F 21 °F -5 °F (1998)
Degree Days  
Heating Degree Days 38 31  
Month to date heating degree days 690 646  
Since 1 July heating degree days 1576 1537  
Cooling Degree Days 0 0  
Month to date cooling degree days 0 0  
Year to date cooling degree days 1846 1482  
Moisture  
Dew Point 16 °F    
Average Humidity 67    
Maximum Humidity 77    
Minimum Humidity 56    
Precipitation  
Precipitation 0.00 in 0.02 in 0.06 in (2007)
Month to date precipitation 0.31 0.47  
Year to date precipitation 15.31 19.13  
Snow  
Snow 0.00 in - - ()
Month to date snowfall 3.5  
Since 1 July snowfall 7.2  
Snow Depth 3.00 in    
Sea Level Pressure  
Sea Level Pressure 30.15 in    
Wind  
Wind Speed 9 mph (West)    
Max Wind Speed 14 mph    
Max Gust Speed 15 mph    
Visibility 10 miles    
Events      
T = Trace of Precipitation, MM = Missing Value Source: NWS Daily Summary

Daily Weather History Graph

Daily Weather History Graph

Search for Another Location

Airport or City:

Trip Planner

Search our weather history database for the weather conditions in past years. The results will help you decide how hot, cold, wet, or windy it might be!

Date:

Astronomy

Dec. 22, 2013 Rise Set
Actual Time 7:55 AM CST 5:34 PM CST
Civil Twilight 7:26 AM CST 6:03 PM CST
Nautical Twilight 6:53 AM CST 6:35 PM CST
Astronomical Twilight 6:22 AM CST 7:07 PM CST
Moon 10:41 PM CST (12/22) 10:59 AM CST (12/22)
Length of Visible Light 10h 36m
Length of Day
9h 39m
Waning Gibbous, 76% of the Moon is Illuminated
Dec 22
Waning Gibbous
Dec 25
Last Quarter
Jan 1
New
Jan 7
First Quarter
Jan 15
Full

Hourly Weather History & Observations

Time (CST) Temp. Windchill Dew Point Humidity Pressure Visibility Wind Dir Wind Speed Gust Speed Precip Events Conditions
12:53 AM 23.0 °F 11.7 °F 14.0 °F 68% 29.93 in 10.0 mi NW 11.5 mph - N/A   Overcast
1:53 AM 23.0 °F 11.7 °F 14.0 °F 68% 29.94 in 10.0 mi NNW 11.5 mph - N/A   Overcast
2:53 AM 19.9 °F 7.3 °F 10.9 °F 68% 29.98 in 10.0 mi NW 12.7 mph - N/A   Partly Cloudy
3:53 AM 21.0 °F 13.4 °F 14.0 °F 74% 30.00 in 10.0 mi NW 5.8 mph - N/A   Overcast
4:53 AM 24.1 °F 16.0 °F 16.0 °F 71% 30.02 in 10.0 mi NNW 6.9 mph - N/A   Overcast
5:53 AM 24.1 °F 15.2 °F 16.0 °F 71% 30.07 in 10.0 mi NNW 8.1 mph - N/A   Partly Cloudy
6:53 AM 21.0 °F 9.9 °F 14.0 °F 74% 30.11 in 10.0 mi North 10.4 mph - N/A   Scattered Clouds
7:53 AM 19.0 °F 11.1 °F 12.9 °F 77% 30.15 in 10.0 mi NNW 5.8 mph - N/A   Mostly Cloudy
8:53 AM 19.9 °F 10.1 °F 12.0 °F 71% 30.19 in 10.0 mi NW 8.1 mph - N/A   Partly Cloudy
9:53 AM 21.9 °F 12.5 °F 14.0 °F 72% 30.22 in 10.0 mi WNW 8.1 mph - N/A   Mostly Cloudy
10:53 AM 27.0 °F 18.7 °F 17.1 °F 66% 30.23 in 10.0 mi NW 8.1 mph - N/A   Scattered Clouds
11:53 AM 30.9 °F 22.8 °F 19.0 °F 61% 30.22 in 10.0 mi NNW 9.2 mph - N/A   Clear
12:53 PM 34.0 °F 29.8 °F 19.9 °F 56% 30.19 in 10.0 mi NNW 4.6 mph - N/A   Clear
1:53 PM 32.0 °F 25.6 °F 21.9 °F 66% 30.18 in 10.0 mi SSW 6.9 mph - N/A   Clear
2:53 PM 34.0 °F 26.0 °F 23.0 °F 64% 30.18 in 10.0 mi SSW 10.4 mph - N/A   Clear
3:53 PM 34.0 °F 27.2 °F 23.0 °F 64% 30.19 in 10.0 mi SW 8.1 mph - N/A   Clear
4:53 PM 32.0 °F 24.8 °F 21.9 °F 66% 30.19 in 10.0 mi South 8.1 mph - N/A   Clear
5:53 PM 27.0 °F 18.7 °F 19.0 °F 72% 30.21 in 10.0 mi SSW 8.1 mph - N/A   Clear
6:53 PM 24.1 °F 13.7 °F 18.0 °F 77% 30.23 in 10.0 mi SSW 10.4 mph - N/A   Clear
7:53 PM 24.1 °F 14.4 °F 18.0 °F 77% 30.23 in 10.0 mi SSW 9.2 mph - N/A   Clear
8:53 PM 21.0 °F 9.9 °F 15.1 °F 78% 30.25 in 10.0 mi SSW 10.4 mph - N/A   Clear
9:53 PM 19.0 °F 6.8 °F 12.9 °F 77% 30.25 in 10.0 mi SSW 11.5 mph - N/A   Clear
10:53 PM 19.9 °F 9.3 °F 12.9 °F 74% 30.25 in 10.0 mi SSW 9.2 mph - N/A   Clear
11:53 PM 18.0 °F 8.7 °F 12.0 °F 78% 30.24 in 10.0 mi SSW 6.9 mph - N/A   Clear